Time,TemperatureF,DewpointF,PressureIn,WindDirection,WindDirectionDegrees,WindSpeedMPH,WindSpeedGustMPH,Humidity,HourlyPrecipIn,Conditions,Clouds,dailyrainin,SoftwareType,DateUTC
2013-03-20 00:02:00,45.0,38.0,29.87,East,96,0.0,-999.0,75,-99.99,,,-99.99,,2013-03-20 07:02:00,
2013-03-20 00:11:00,45.0,38.0,29.87,East,96,0.0,-999.0,75,-99.99,,,-99.99,,2013-03-20 07:11:00,
2013-03-20 00:21:00,45.0,38.0,29.86,East,96,0.0,-999.0,75,-99.99,,,-99.99,,2013-03-20 07:21:00,
2013-03-20 00:31:00,45.0,38.0,29.86,East,96,0.0,-999.0,76,-99.99,,,-99.99,,2013-03-20 07:31:00,
2013-03-20 00:41:00,45.0,38.0,29.86,East,96,0.0,-999.0,76,-99.99,,,-99.99,,2013-03-20 07:41:00,
2013-03-20 00:52:00,45.0,38.0,29.85,East,96,0.0,-999.0,77,-99.99,,,-99.99,,2013-03-20 07:52:00,
2013-03-20 01:01:00,44.0,37.0,29.83,East,96,0.0,-999.0,77,-99.99,,,-99.99,,2013-03-20 08:01:00,
2013-03-20 01:11:00,44.0,37.0,29.83,East,96,0.0,-999.0,77,-99.99,,,-99.99,,2013-03-20 08:11:00,
2013-03-20 01:21:00,45.0,39.0,29.82,East,96,0.0,-999.0,78,-99.99,,,-99.99,,2013-03-20 08:21:00,
2013-03-20 01:32:00,45.0,39.0,29.82,East,96,0.0,-999.0,78,-99.99,,,-99.99,,2013-03-20 08:32:00,
2013-03-20 01:42:00,45.0,39.0,29.82,East,96,0.0,-999.0,78,-99.99,,,-99.99,,2013-03-20 08:42:00,
2013-03-20 01:52:00,44.0,38.0,29.82,East,96,0.0,-999.0,78,-99.99,,,-99.99,,2013-03-20 08:52:00,
2013-03-20 02:02:00,44.0,37.0,29.80,NE,49,1.0,-999.0,77,-99.99,,,-99.99,,2013-03-20 09:02:00,
2013-03-20 02:12:00,44.0,37.0,29.80,NE,49,1.0,-999.0,77,-99.99,,,-99.99,,2013-03-20 09:12:00,
2013-03-20 02:22:00,45.0,38.0,29.80,NE,53,1.0,-999.0,76,-99.99,,,-99.99,,2013-03-20 09:22:00,
2013-03-20 02:32:00,44.0,37.0,29.79,NE,53,0.0,-999.0,77,-99.99,,,-99.99,,2013-03-20 09:32:00,
2013-03-20 02:42:00,44.0,37.0,29.79,NE,53,0.0,-999.0,77,-99.99,,,-99.99,,2013-03-20 09:42:00,
2013-03-20 02:53:00,44.0,37.0,29.78,NE,53,0.0,-999.0,77,-99.99,,,-99.99,,2013-03-20 09:53:00,
2013-03-20 03:02:00,44.0,37.0,29.77,SE,140,0.0,-999.0,76,-99.99,,,-99.99,,2013-03-20 10:02:00,
2013-03-20 03:12:00,44.0,37.0,29.77,SE,140,0.0,-999.0,76,-99.99,,,-99.99,,2013-03-20 10:12:00,
2013-03-20 03:22:00,44.0,37.0,29.77,SE,140,0.0,-999.0,76,-99.99,,,-99.99,,2013-03-20 10:22:00,
2013-03-20 03:32:00,44.0,37.0,29.76,SE,140,0.0,-999.0,76,-99.99,,,-99.99,,2013-03-20 10:32:00,
2013-03-20 03:42:00,44.0,37.0,29.76,SE,140,0.0,-999.0,76,-99.99,,,-99.99,,2013-03-20 10:42:00,
2013-03-20 03:53:00,44.0,38.0,29.77,SE,140,0.0,-999.0,79,-99.99,,,-99.99,,2013-03-20 10:53:00,
2013-03-20 04:02:00,44.0,38.0,29.78,SE,140,0.0,-999.0,80,-99.99,,,-99.99,,2013-03-20 11:02:00,
2013-03-20 04:11:00,44.0,38.0,29.78,SE,140,0.0,-999.0,80,-99.99,,,-99.99,,2013-03-20 11:11:00,
2013-03-20 04:22:00,44.0,39.0,29.77,SE,140,0.0,-999.0,81,-99.99,,,-99.99,,2013-03-20 11:22:00,
2013-03-20 04:32:00,44.0,39.0,29.77,SE,140,0.0,-999.0,83,-99.99,,,-99.99,,2013-03-20 11:32:00,
2013-03-20 04:42:00,44.0,39.0,29.77,SE,140,0.0,-999.0,83,-99.99,,,-99.99,,2013-03-20 11:42:00,
2013-03-20 04:52:00,43.0,39.0,29.78,SE,140,0.0,-999.0,85,-99.99,,,-99.99,,2013-03-20 11:52:00,
2013-03-20 05:02:00,43.0,39.0,29.78,SE,140,0.0,-999.0,85,-99.99,,,-99.99,,2013-03-20 12:02:00,
2013-03-20 05:11:00,43.0,39.0,29.78,SE,140,0.0,-999.0,85,-99.99,,,-99.99,,2013-03-20 12:11:00,
2013-03-20 05:22:00,43.0,39.0,29.77,SE,140,0.0,-999.0,87,-99.99,,,-99.99,,2013-03-20 12:22:00,
2013-03-20 05:32:00,43.0,40.0,29.77,SE,140,0.0,-999.0,89,-99.99,,,-99.99,,2013-03-20 12:32:00,
2013-03-20 05:42:00,43.0,40.0,29.77,SE,140,0.0,-999.0,89,-99.99,,,-99.99,,2013-03-20 12:42:00,
2013-03-20 05:51:00,42.0,39.0,29.77,SE,140,0.0,-999.0,90,-99.99,,,-99.99,,2013-03-20 12:51:00,
2013-03-20 06:02:00,42.0,39.0,29.75,SE,140,0.0,-999.0,90,-99.99,,,-99.99,,2013-03-20 13:02:00,
2013-03-20 06:12:00,42.0,39.0,29.75,SE,140,0.0,-999.0,90,-99.99,,,-99.99,,2013-03-20 13:12:00,
2013-03-20 06:21:00,42.0,40.0,29.75,SE,140,0.0,-999.0,91,-99.99,,,-99.99,,2013-03-20 13:21:00,
2013-03-20 06:32:00,42.0,40.0,29.75,SE,140,0.0,-999.0,91,-99.99,,,-99.99,,2013-03-20 13:32:00,
2013-03-20 06:42:00,42.0,40.0,29.75,SE,140,0.0,-999.0,91,-99.99,,,-99.99,,2013-03-20 13:42:00,
2013-03-20 06:52:00,42.0,40.0,29.75,SE,140,0.0,-999.0,92,-99.99,,,-99.99,,2013-03-20 13:52:00,
2013-03-20 07:01:00,42.0,40.0,29.74,SE,140,0.0,-999.0,92,-99.99,,,-99.99,,2013-03-20 14:01:00,
2013-03-20 07:11:00,42.0,40.0,29.74,SE,140,0.0,-999.0,92,-99.99,,,-99.99,,2013-03-20 14:11:00,
2013-03-20 07:21:00,42.0,40.0,29.74,SE,140,0.0,-999.0,92,-99.99,,,-99.99,,2013-03-20 14:21:00,
2013-03-20 07:32:00,42.0,40.0,29.74,SE,140,0.0,-999.0,92,-99.99,,,-99.99,,2013-03-20 14:32:00,
2013-03-20 07:42:00,42.0,40.0,29.74,SE,140,0.0,-999.0,92,-99.99,,,-99.99,,2013-03-20 14:42:00,
2013-03-20 07:51:00,42.0,40.0,29.75,SE,140,0.0,-999.0,92,-99.99,,,-99.99,,2013-03-20 14:51:00,
2013-03-20 08:02:00,42.0,40.0,29.74,SE,140,0.0,-999.0,92,-99.99,,,-99.99,,2013-03-20 15:02:00,
2013-03-20 08:12:00,42.0,40.0,29.73,SE,140,0.0,-999.0,92,-99.99,,,-99.99,,2013-03-20 15:12:00,
2013-03-20 08:22:00,42.0,40.0,29.73,SE,140,0.0,-999.0,92,-99.99,,,-99.99,,2013-03-20 15:22:00,
2013-03-20 08:33:00,42.0,40.0,29.73,SE,140,0.0,-999.0,93,-99.99,,,-99.99,,2013-03-20 15:33:00,
2013-03-20 08:43:00,42.0,40.0,29.73,SE,140,0.0,-999.0,93,-99.99,,,-99.99,,2013-03-20 15:43:00,
2013-03-20 08:52:00,42.0,40.0,29.72,SE,140,0.0,-999.0,93,-99.99,,,-99.99,,2013-03-20 15:52:00,
2013-03-20 09:02:00,43.0,41.0,29.72,SE,140,0.0,-999.0,93,-99.99,,,-99.99,,2013-03-20 16:02:00,
2013-03-20 09:12:00,43.0,41.0,29.72,SE,140,0.0,-999.0,93,-99.99,,,-99.99,,2013-03-20 16:12:00,
2013-03-20 09:22:00,43.0,41.0,29.72,SE,140,1.0,-999.0,93,-99.99,,,-99.99,,2013-03-20 16:22:00,
2013-03-20 09:32:00,43.0,41.0,29.71,SE,140,0.0,-999.0,93,-99.99,,,-99.99,,2013-03-20 16:32:00,
2013-03-20 09:42:00,43.0,41.0,29.71,SE,140,0.0,-999.0,93,-99.99,,,-99.99,,2013-03-20 16:42:00,
2013-03-20 09:52:00,45.0,43.0,29.70,SE,140,0.0,-999.0,92,-99.99,,,-99.99,,2013-03-20 16:52:00,
2013-03-20 10:02:00,47.0,44.0,29.69,SE,140,1.0,-999.0,88,-99.99,,,-99.99,,2013-03-20 17:02:00,
2013-03-20 10:12:00,47.0,44.0,29.69,SE,140,1.0,-999.0,88,-99.99,,,-99.99,,2013-03-20 17:12:00,
2013-03-20 10:21:00,46.0,43.0,29.68,SE,140,0.0,-999.0,88,-99.99,,,-99.99,,2013-03-20 17:21:00,
2013-03-20 10:32:00,47.0,43.0,29.67,SE,140,0.0,-999.0,87,-99.99,,,-99.99,,2013-03-20 17:32:00,
2013-03-20 10:42:00,47.0,43.0,29.67,SE,140,0.0,-999.0,87,-99.99,,,-99.99,,2013-03-20 17:42:00,
2013-03-20 10:52:00,48.0,45.0,29.67,SE,140,0.0,-999.0,91,-99.99,,,-99.99,,2013-03-20 17:52:00,
2013-03-20 11:02:00,48.0,44.0,29.66,SE,140,0.0,-999.0,86,-99.99,,,-99.99,,2013-03-20 18:02:00,
2013-03-20 11:12:00,48.0,44.0,29.66,SE,140,0.0,-999.0,86,-99.99,,,-99.99,,2013-03-20 18:12:00,
2013-03-20 11:22:00,48.0,44.0,29.65,SE,140,0.0,-999.0,85,-99.99,,,-99.99,,2013-03-20 18:22:00,
2013-03-20 11:32:00,49.0,44.0,29.64,SE,140,0.0,-999.0,84,-99.99,,,-99.99,,2013-03-20 18:32:00,
2013-03-20 11:42:00,49.0,44.0,29.64,SE,140,0.0,-999.0,84,-99.99,,,-99.99,,2013-03-20 18:42:00,
2013-03-20 11:52:00,49.0,44.0,29.64,SE,140,0.0,-999.0,84,-99.99,,,-99.99,,2013-03-20 18:52:00,
2013-03-20 12:02:00,50.0,44.0,29.63,SE,140,1.0,-999.0,81,-99.99,,,-99.99,,2013-03-20 19:02:00,
2013-03-20 12:12:00,50.0,44.0,29.63,SE,140,1.0,-999.0,81,-99.99,,,-99.99,,2013-03-20 19:12:00,
2013-03-20 12:22:00,50.0,45.0,29.62,SE,140,0.0,-999.0,82,-99.99,,,-99.99,,2013-03-20 19:22:00,
2013-03-20 12:32:00,51.0,46.0,29.61,SE,140,0.0,-999.0,82,-99.99,,,-99.99,,2013-03-20 19:32:00,
2013-03-20 12:42:00,51.0,46.0,29.61,SE,140,0.0,-999.0,82,-99.99,,,-99.99,,2013-03-20 19:42:00,
2013-03-20 12:52:00,52.0,46.0,29.60,WSW,244,2.0,-999.0,81,-99.99,,,-99.99,,2013-03-20 19:52:00,
2013-03-20 13:02:00,52.0,46.0,29.59,WSW,246,1.0,-999.0,79,-99.99,,,-99.99,,2013-03-20 20:02:00,
2013-03-20 13:12:00,52.0,46.0,29.59,WSW,246,1.0,-999.0,79,-99.99,,,-99.99,,2013-03-20 20:12:00,
2013-03-20 13:22:00,52.0,45.0,29.58,WSW,246,1.0,-999.0,78,-99.99,,,-99.99,,2013-03-20 20:22:00,
2013-03-20 13:32:00,53.0,46.0,29.57,WSW,246,1.0,-999.0,77,-99.99,,,-99.99,,2013-03-20 20:32:00,
2013-03-20 13:42:00,53.0,46.0,29.57,WSW,246,1.0,-999.0,77,-99.99,,,-99.99,,2013-03-20 20:42:00,
2013-03-20 14:02:00,55.0,47.0,29.53,SSW,206,1.0,-999.0,73,-99.99,,,-99.99,,2013-03-20 21:02:00,
2013-03-20 14:12:00,55.0,47.0,29.53,SSW,206,1.0,-999.0,73,-99.99,,,-99.99,,2013-03-20 21:12:00,
2013-03-20 14:22:00,56.0,46.0,29.50,SSW,206,1.0,-999.0,70,-99.99,,,-99.99,,2013-03-20 21:22:00,
2013-03-20 14:33:00,56.0,46.0,29.48,SSW,206,1.0,-999.0,69,-99.99,,,-99.99,,2013-03-20 21:33:00,
2013-03-20 14:42:00,56.0,46.0,29.48,SSW,206,1.0,-999.0,69,-99.99,,,-99.99,,2013-03-20 21:42:00,
2013-03-20 14:52:00,56.0,46.0,29.47,SSW,206,1.0,-999.0,70,-99.99,,,-99.99,,2013-03-20 21:52:00,
2013-03-20 15:02:00,56.0,44.0,29.57,SSW,200,8.0,-999.0,63,-99.99,,,-99.99,,2013-03-20 22:02:00,
2013-03-20 15:12:00,56.0,44.0,29.57,SSW,200,8.0,-999.0,63,-99.99,,,-99.99,,2013-03-20 22:12:00,
2013-03-20 15:22:00,49.0,43.0,29.62,SW,219,9.0,-999.0,81,-99.99,,,-99.99,,2013-03-20 22:22:00,
2013-03-20 15:32:00,48.0,44.0,29.63,SSE,153,5.0,-999.0,85,-99.99,,,-99.99,,2013-03-20 22:32:00,
2013-03-20 15:42:00,48.0,44.0,29.63,SSE,153,5.0,-999.0,85,-99.99,,,-99.99,,2013-03-20 22:42:00,
2013-03-20 15:52:00,48.0,44.0,29.66,SSW,210,7.0,-999.0,85,-99.99,,,-99.99,,2013-03-20 22:52:00,
2013-03-20 16:12:00,48.0,44.0,29.66,SSW,210,7.0,-999.0,85,-99.99,,,-99.99,,2013-03-20 23:12:00,
2013-03-20 16:22:00,46.0,42.0,29.69,NNE,32,1.0,-999.0,86,-99.99,,,-99.99,,2013-03-20 23:22:00,
2013-03-20 16:32:00,46.0,41.0,29.69,ENE,75,2.0,-999.0,84,-99.99,,,-99.99,,2013-03-20 23:32:00,
2013-03-20 16:42:00,46.0,41.0,29.69,ENE,75,2.0,-999.0,84,-99.99,,,-99.99,,2013-03-20 23:42:00,
2013-03-20 16:52:00,47.0,40.0,29.67,NW,317,3.0,-999.0,77,-99.99,,,-99.99,,2013-03-20 23:52:00,
2013-03-20 17:02:00,47.0,42.0,29.67,NNE,17,1.0,-999.0,83,-99.99,,,-99.99,,2013-03-21 00:02:00,
2013-03-20 17:12:00,47.0,42.0,29.67,NNE,17,1.0,-999.0,83,-99.99,,,-99.99,,2013-03-21 00:12:00,
2013-03-20 17:22:00,46.0,42.0,29.68,NE,36,1.0,-999.0,86,-99.99,,,-99.99,,2013-03-21 00:22:00,
2013-03-20 17:32:00,45.0,42.0,29.68,East,99,0.0,-999.0,89,-99.99,,,-99.99,,2013-03-21 00:32:00,
2013-03-20 17:42:00,45.0,42.0,29.68,East,99,0.0,-999.0,89,-99.99,,,-99.99,,2013-03-21 00:42:00,
2013-03-20 17:52:00,45.0,42.0,29.70,East,99,0.0,-999.0,90,-99.99,,,-99.99,,2013-03-21 00:52:00,
2013-03-20 18:02:00,45.0,42.0,29.71,East,99,0.0,-999.0,90,-99.99,,,-99.99,,2013-03-21 01:02:00,
2013-03-20 18:11:00,45.0,42.0,29.71,East,99,0.0,-999.0,90,-99.99,,,-99.99,,2013-03-21 01:11:00,
2013-03-20 18:21:00,45.0,43.0,29.72,East,99,0.0,-999.0,91,-99.99,,,-99.99,,2013-03-21 01:21:00,
2013-03-20 18:32:00,45.0,43.0,29.72,East,99,0.0,-999.0,91,-99.99,,,-99.99,,2013-03-21 01:32:00,
2013-03-20 18:42:00,45.0,43.0,29.72,East,99,0.0,-999.0,91,-99.99,,,-99.99,,2013-03-21 01:42:00,
2013-03-20 18:52:00,45.0,43.0,29.74,East,99,0.0,-999.0,91,-99.99,,,-99.99,,2013-03-21 01:52:00,
2013-03-20 19:02:00,45.0,43.0,29.74,East,99,0.0,-999.0,91,-99.99,,,-99.99,,2013-03-21 02:02:00,
2013-03-20 19:12:00,45.0,43.0,29.74,East,99,0.0,-999.0,91,-99.99,,,-99.99,,2013-03-21 02:12:00,
2013-03-20 19:22:00,45.0,43.0,29.74,East,99,0.0,-999.0,91,-99.99,,,-99.99,,2013-03-21 02:22:00,
2013-03-20 19:32:00,45.0,42.0,29.75,East,99,0.0,-999.0,90,-99.99,,,-99.99,,2013-03-21 02:32:00,
2013-03-20 19:42:00,45.0,42.0,29.75,East,99,0.0,-999.0,90,-99.99,,,-99.99,,2013-03-21 02:42:00,
2013-03-20 19:51:00,45.0,42.0,29.75,East,99,0.0,-999.0,90,-99.99,,,-99.99,,2013-03-21 02:51:00,
2013-03-20 20:02:00,44.0,42.0,29.77,East,99,0.0,-999.0,91,-99.99,,,-99.99,,2013-03-21 03:02:00,
2013-03-20 20:12:00,44.0,42.0,29.77,East,99,0.0,-999.0,91,-99.99,,,-99.99,,2013-03-21 03:12:00,
2013-03-20 20:21:00,44.0,42.0,29.77,East,99,0.0,-999.0,91,-99.99,,,-99.99,,2013-03-21 03:21:00,
2013-03-20 20:32:00,43.0,41.0,29.78,SE,142,0.0,-999.0,92,-99.99,,,-99.99,,2013-03-21 03:32:00,
2013-03-20 20:43:00,43.0,41.0,29.78,SE,142,0.0,-999.0,92,-99.99,,,-99.99,,2013-03-21 03:43:00,
2013-03-20 20:53:00,42.0,40.0,29.78,SE,142,0.0,-999.0,92,-99.99,,,-99.99,,2013-03-21 03:53:00,
2013-03-20 21:02:00,42.0,40.0,29.80,SE,142,0.0,-999.0,92,-99.99,,,-99.99,,2013-03-21 04:02:00,
2013-03-20 21:12:00,42.0,40.0,29.80,SE,142,0.0,-999.0,92,-99.99,,,-99.99,,2013-03-21 04:12:00,
2013-03-20 21:22:00,41.0,39.0,29.81,SE,142,0.0,-999.0,92,-99.99,,,-99.99,,2013-03-21 04:22:00,
2013-03-20 21:32:00,41.0,39.0,29.83,SE,142,0.0,-999.0,92,-99.99,,,-99.99,,2013-03-21 04:32:00,
2013-03-20 21:43:00,41.0,39.0,29.83,SE,142,0.0,-999.0,92,-99.99,,,-99.99,,2013-03-21 04:43:00,
2013-03-20 21:52:00,40.0,38.0,29.83,SE,142,0.0,-999.0,92,-99.99,,,-99.99,,2013-03-21 04:52:00,
2013-03-20 22:02:00,40.0,38.0,29.84,SE,142,0.0,-999.0,93,-99.99,,,-99.99,,2013-03-21 05:02:00,
2013-03-20 22:12:00,40.0,38.0,29.84,SE,142,0.0,-999.0,93,-99.99,,,-99.99,,2013-03-21 05:12:00,
2013-03-20 22:21:00,39.0,37.0,29.85,SE,142,0.0,-999.0,93,-99.99,,,-99.99,,2013-03-21 05:21:00,
2013-03-20 22:32:00,39.0,37.0,29.85,SE,142,0.0,-999.0,93,-99.99,,,-99.99,,2013-03-21 05:32:00,
2013-03-20 22:43:00,39.0,37.0,29.85,SE,142,0.0,-999.0,93,-99.99,,,-99.99,,2013-03-21 05:43:00,
2013-03-20 22:51:00,39.0,37.0,29.86,SE,142,0.0,-999.0,93,-99.99,,,-99.99,,2013-03-21 05:51:00,
2013-03-20 23:02:00,39.0,37.0,29.86,SE,142,0.0,-999.0,93,-99.99,,,-99.99,,2013-03-21 06:02:00,
2013-03-20 23:12:00,39.0,37.0,29.86,SE,142,0.0,-999.0,93,-99.99,,,-99.99,,2013-03-21 06:12:00,
2013-03-20 23:22:00,39.0,37.0,29.86,SE,142,0.0,-999.0,93,-99.99,,,-99.99,,2013-03-21 06:22:00,
2013-03-20 23:32:00,39.0,37.0,29.87,SE,142,0.0,-999.0,94,-99.99,,,-99.99,,2013-03-21 06:32:00,
2013-03-20 23:42:00,39.0,37.0,29.87,SE,142,0.0,-999.0,94,-99.99,,,-99.99,,2013-03-21 06:42:00,
2013-03-20 23:52:00,38.0,36.0,29.88,SE,142,0.0,-999.0,94,-99.99,,,-99.99,,2013-03-21 06:52:00,